Location: Invercargill
(46.4000°S, 168.3500°E)
Time: 01:29:35
(UTC+13:00)

H-2A R/B - Pass Details

Date: 24 January 2019
Orbit: 259 x 32961 km, 27.9° (Epoch: 19 February)

Event Time Altitude Azimuth Distance (km) Brightness Sun altitude
Rises 22:06:44 0° 352° (N) 2,591 4.5 -6.1°
Reaches altitude 10° 22:10:55 10° 40° (NE) 2,931 4.4 -6.7°
Maximum altitude 22:11:50 10° 48° (NE) 3,204 4.5 -6.8°
Drops below altitude 10° 22:12:54 10° 55° (NE) 3,571 4.7 -7.0°
Sets 22:26:37 0° 86° (E) 9,046 7.0 -8.8°
